Temp
57 56 57 57 56 57 59 59 59 58 58 58 58 57 57 56 56 57 56 56 56 55
56 56 56 56 57 56 57 58 57 57 57 57 57 57 56 56 55 56 56 56 56 57
56 57 56 55 55 55 54 54 54 57 57 56 56 56 55 55 55 55 54 54 54 54
56 56 56 55 55 54 54 53 52 52 52 53 54 54 55 54 53 53 51 52 52 50
56 56 56 56 56 55 54 55 55 53 52 51 50 50 52 51 51 49 49 48 48 47
55 55 56 56 56 56 56 56 55 54 52 51 51 50 49 49 48 49 48 47 46 45
56 56 55 56 56 56 55 55 55 55 54 52 51 50 50 49 48 48 47 46 46 47
52 54 55 54 53 53 54 54 53 53 52 51 51 50 49 48 48 47 44 42 44 44
49 52 52 52 52 52 53 51 50 51 50 49 49 49 49 49 46 43 42 42 43 42
47 48 49 50 50 50 50 50 50 50 49 48 49 48 49 48 45 44 43 42 40 41
45 46 47 48 48 49 49 48 48 49 48 47 48 48 48 46 44 42 41 41 42 41
43 44 45 45 45 46 45 45 45 45 46 46 45 47 46 44 41 40 39 40 41 40
41 42 43 43 43 43 44 43 43 43 44 45 44 46 45 43 41 37 37 38 39 41
39 39 41 40 41 41 41 41 40 40 42 43 45 45 45 44 40 38 36 36 36 39
MSLP
1012.53 1013.12 1013.91 1014.44 1015.02 1015.56 1015.96 1016.41 1017.13 1017.71 1018.34 1018.84 1019.41 1020.25 1020.99 1021.52 1022.15 1022.39 1023.08 1023.58 1024.25 1024.56
1012.64 1013.13 1013.49 1014.09 1014.68 1015.23 1015.85 1016.26 1016.69 1017.05 1017.66 1018.32 1018.93 1019.75 1020.41 1020.97 1021.80 1022.05 1022.57 1022.90 1023.56 1024.46
1011.67 1012.65 1013.35 1013.83 1014.42 1015.08 1015.26 1015.81 1016.65 1017.39 1017.32 1017.69 1018.35 1019.05 1019.84 1020.69 1021.30 1021.54 1021.98 1022.67 1023.28 1023.93
1011.81 1012.64 1013.06 1013.46 1013.91 1014.58 1014.78 1015.06 1015.99 1016.45 1016.95 1017.78 1018.02 1018.51 1019.47 1020.07 1020.61 1021.24 1021.62 1022.41 1023.06 1023.72
1011.80 1012.36 1012.96 1013.36 1013.65 1013.93 1014.25 1015.15 1016.16 1016.25 1016.24 1016.86 1017.60 1017.87 1019.19 1019.70 1020.04 1020.39 1020.54 1021.33 1022.40 1022.98
1012.15 1012.53 1012.75 1013.06 1013.35 1013.67 1013.90 1014.58 1015.12 1015.94 1015.87 1016.18 1016.72 1017.66 1018.68 1018.91 1019.54 1020.03 1020.19 1020.97 1021.65 1022.47
1012.39 1012.39 1012.62 1012.87 1013.35 1013.61 1013.89 1014.36 1014.67 1015.04 1015.21 1015.62 1016.33 1017.12 1017.97 1018.62 1019.11 1019.95 1020.40 1020.97 1021.68 1022.19
1012.92 1012.47 1012.50 1012.82 1013.01 1013.29 1013.66 1014.08 1014.37 1014.74 1015.12 1015.65 1016.31 1016.81 1017.38 1018.07 1018.93 1019.61 1020.42 1021.19 1021.77 1022.67
1013.07 1012.74 1012.66 1012.68 1012.89 1013.09 1013.33 1013.70 1014.06 1014.47 1014.94 1015.62 1016.10 1016.56 1017.09 1017.69 1018.42 1019.36 1020.10 1021.34 1022.13 1022.55
1013.75 1013.57 1013.22 1013.04 1013.12 1013.21 1013.31 1013.57 1013.89 1014.26 1014.74 1015.30 1015.80 1016.34 1017.01 1017.52 1018.28 1018.99 1019.78 1020.65 1021.72 1022.53
1014.17 1013.99 1013.75 1013.43 1013.27 1013.25 1013.40 1013.51 1013.75 1014.18 1014.56 1015.11 1015.53 1016.04 1016.74 1017.46 1018.35 1019.11 1020.02 1020.48 1021.33 1021.77
1015.11 1014.65 1014.28 1013.99 1013.71 1013.69 1013.75 1013.83 1013.97 1014.15 1014.52 1014.88 1015.34 1015.84 1016.58 1017.42 1018.30 1019.11 1020.10 1020.70 1021.47 1022.11
1015.71 1015.24 1014.84 1014.44 1014.20 1014.17 1014.09 1014.08 1014.19 1014.42 1014.59 1014.87 1015.22 1015.68 1016.47 1017.21 1018.15 1019.15 1020.16 1021.02 1021.88 1022.37
1016.16 1015.90 1015.37 1014.72 1014.52 1014.50 1014.47 1014.44 1014.58 1014.70 1014.80 1014.97 1015.27 1015.75 1016.41 1017.12 1017.83 1018.75 1019.90 1020.77 1021.87 1022.45
Wind_Speed
8 6 7 9 6 8 10 11 12 12 12 13 13 12 11 8 8 10 9 11 8 5
8 9 9 8 7 6 5 4 9 13 13 12 12 12 12 8 11 10 10 9 9 7
11 8 7 6 8 9 7 6 6 8 11 12 12 12 12 10 10 10 8 6 9 7
8 9 7 7 7 8 8 8 9 11 7 8 10 10 12 11 12 11 9 7 8 6
6 7 8 9 10 10 11 12 14 13 13 12 10 10 10 10 9 11 12 11 10 10
6 7 9 9 8 9 9 10 10 11 12 12 12 13 12 12 12 11 12 13 12 11
2 5 6 6 7 7 7 8 9 10 10 11 12 12 12 12 12 11 10 9 9 12
3 4 1 4 5 6 8 8 8 9 8 9 10 10 14 14 13 12 10 9 11 9
7 5 3 1 3 5 7 6 7 8 10 10 8 15 19 16 12 12 14 12 9 10
7 7 6 3 1 3 4 5 7 9 9 10 10 17 20 19 11 13 13 15 12 11
8 8 7 5 3 1 2 5 5 7 8 8 8 18 20 20 12 11 11 13 15 14
8 7 7 6 5 2 2 3 3 4 7 8 7 18 20 17 12 13 12 12 12 13
7 7 6 4 4 2 1 2 3 4 4 7 7 19 23 17 10 13 11 10 12 19
7 6 5 3 2 2 1 3 3 4 4 5 9 14 24 23 12 12 11 11 10 9
Wind_Direction
181 174 185 181 181 190 192 193 184 188 186 184 181 182 183 185 192 188 194 191 194 191
184 194 191 180 174 184 195 197 189 189 187 187 181 182 175 183 190 192 193 194 188 205
173 198 197 175 189 184 174 168 187 211 193 179 179 178 176 187 189 183 183 184 185 185
166 178 177 192 190 193 168 162 183 193 191 177 174 173 185 184 172 173 160 164 176 174
164 182 187 198 207 191 185 193 200 186 181 180 172 160 182 172 168 165 162 161 159 157
169 181 196 206 204 198 194 190 174 180 177 175 176 174 181 180 172 183 167 160 153 160
95 182 190 189 191 190 181 182 187 188 182 179 177 179 182 180 171 168 155 151 162 155
0 350 240 190 186 186 181 185 179 173 171 170 174 175 171 171 163 158 146 143 145 152
6 13 15 302 189 172 172 158 154 170 168 173 184 183 177 166 159 155 152 152 147 138
2 358 359 13 107 177 170 159 176 179 175 184 188 179 178 168 162 162 157 152 144 143
357 351 341 342 327 279 181 192 184 189 184 183 187 178 177 164 155 147 152 148 153 142
347 343 340 331 328 305 203 171 179 170 170 175 173 173 162 152 144 141 142 145 146 143
338 338 336 325 326 310 246 183 144 150 161 172 165 167 162 151 144 138 138 129 136 144
345 329 331 344 333 295 184 139 144 144 147 157 166 171 167 161 153 149 144 142 144 142